Flag for Canada Weather past 2 weeks in Kuujjuaq, Quebec, Canada

Now
66 °F

Sprinkles. Partly sunny.


Feels Like: 66 °F
Forecast: 54 / 66 °F
Wind: 14 mph from Southwest

Location: Kuujjuaq

Current Time: Jul 22, 2014 at 10:22:32 AM

Latest Report: Jul 22, 2014 at 9:00 AM


Visibility: 15 mi

Pressure: 29.46 "Hg

Humidity: 78%

Dew point: 59 °F

Location of KuujjuaqLocation

Historic Weather in Kuujjuaq — Graph

°F

Kuujjuaq temperature yesterday

Maximum temperature yesterday: 88 °F (at 3:00 PM)
Minimum temperature yesterday: 63 °F (at 5:00 AM)
Average temperature yesterday: 75 °F

Past Weeks' High & Low Weather Summary

 TemperatureHumidityPressure
High88 °F (Jul 21, 3:00 PM)100% (Jul 8, 5:00 AM)30.00 "Hg (Jul 8, 5:00 AM)
Low36 °F (Jul 14, 1:00 AM)24% (Jul 16, 5:00 PM)29.46 "Hg (Jul 22, 5:00 AM)
Average55 °F70%29.79 "Hg
* Reported Jul 7 9:00 AM — Jul 22 9:00 AM, Kuujjuaq, Weather by CustomWeather, © 2014

Note: Actual official high and low records may vary slightly from our data, if they occured in-between our weather recording intervals... More about our weather records

Advertising

Kuujjuaq weather history for previous 24 hours

 ConditionsComfort  
Time TempWeatherWind HumidityBarometerVisibility
9:00 AM
Jul 22
66 °FSprinkles. Partly sunny.14 mph78%29.46 "Hg15 mi
8:50 AM68 °FSprinkles. Partly sunny.17 mph73%29.46 "Hg15 mi
8:00 AM66 °FPartly sunny.14 mph83%29.46 "Hg15 mi
7:00 AM66 °FBroken clouds.13 mph83%29.46 "Hg15 mi
6:00 AM64 °FPartly sunny.9 mph88%29.46 "Hg15 mi
5:00 AM64 °FPartly cloudy.7 mph94%29.46 "Hg15 mi
4:00 AM64 °FPassing clouds.9 mph94%29.47 "Hg15 mi
3:00 AM64 °FPassing clouds.9 mph94%29.46 "Hg15 mi
2:00 AM64 °FOvercast.8 mph94%29.48 "Hg15 mi
1:00 AM64 °FOvercast.17 mph94%29.49 "Hg15 mi
12:53 AM64 °FLight rain. Overcast.17 mph94%29.50 "Hg15 mi
12:00 AM66 °FLight rain. Overcast.14 mph83%29.53 "Hg15 mi
11:00 PM
Jul 21
66 °FOvercast.6 mph83%29.53 "Hg15 mi
10:00 PM70 °FLight rain. Mostly cloudy.6 mph69%29.57 "Hg15 mi
9:00 PM75 °FMostly cloudy.7 mph50%29.58 "Hg15 mi
8:00 PM79 °FMostly cloudy.7 mph45%29.60 "Hg15 mi
7:00 PM81 °FMore clouds than sun.8 mph39%29.61 "Hg15 mi
6:00 PM84 °FBroken clouds.10 mph35%29.63 "Hg15 mi
5:00 PM86 °FBroken clouds.16 mph33%29.65 "Hg15 mi
4:00 PM86 °FBroken clouds.18 mph33%29.67 "Hg15 mi
3:00 PM88 °FBroken clouds.18 mph31%29.69 "Hg15 mi
2:00 PM86 °FBroken clouds.23 mph35%29.70 "Hg15 mi
1:00 PM86 °FBroken clouds.20 mph35%29.73 "Hg15 mi
12:00 PM84 °FPartly sunny.18 mph37%29.75 "Hg15 mi
11:00 AM84 °FPartly sunny.14 mph37%29.77 "Hg15 mi
10:00 AM82 °FBroken clouds.12 mph40%29.80 "Hg15 mi
Weather by CustomWeather, © 2014

See weather overviewHow to use our weather pages